This is the latest recevied weather packets stored in our database for station/object SM4JDW-10. If no packets are shown the sender has not sent any weather packets the latest 10 day(s).
| Time | Temp. | Humidity | Pressure | Rain* | Wind** | Luminosity | Snow |
|---|---|---|---|---|---|---|---|
| 1787811543 | 11.11° C | 65% | 1024.6 hPa | - | - | - | - |
| 1787809743 | 11.11° C | 64% | 1024.7 hPa | - | - | - | - |
| 1787807943 | 11.11° C | 71% | 1024.8 hPa | - | - | - | - |
| 1787806143 | 11.11° C | 71% | 1024.8 hPa | - | - | - | - |
| 1787804343 | 11.11° C | 70% | 1024.9 hPa | - | - | - | - |
| 1787802543 | 11.67° C | 69% | 1025 hPa | - | - | - | - |
| 1787800743 | 11.67° C | 69% | 1024.9 hPa | - | - | - | - |
| 1787798943 | 11.67° C | 68% | 1025 hPa | - | - | - | - |
| 1787797143 | 12.22° C | 68% | 1025 hPa | - | - | - | - |
| 1787795342 | 12.78° C | 67% | 1025.1 hPa | - | - | - | - |
| 1787793542 | 12.78° C | 66% | 1025.1 hPa | - | - | - | - |
| 1787791742 | 13.33° C | 67% | 1025 hPa | - | - | - | - |
| 1787789942 | 13.33° C | 64% | 1025 hPa | - | - | - | - |
| 1787788142 | 13.89° C | 66% | 1024.9 hPa | - | - | - | - |
| 1787786342 | 13.89° C | 63% | 1025.1 hPa | - | - | - | - |
| 1787784542 | 14.44° C | 63% | 1025.2 hPa | - | - | - | - |
| 1787782742 | 15° C | 60% | 1025.2 hPa | - | - | - | - |
| 1787780942 | 15.56° C | 59% | 1025.2 hPa | - | - | - | - |
| 1787779142 | 15.56° C | 58% | 1025.3 hPa | - | - | - | - |
| 1787777342 | 16.11° C | 56% | 1025 hPa | - | - | - | - |
* Rain since midnight (hover to see other rain measurements)
** Current wind speed in m/s (hover to see current wind gust speed)